User: anonymous   Login
Location: S�tio Afonso Gruber
(26.1760°S, 49.5250°W)
Time: 09:49:02
(UTC+00:00)
Language:

YUBILEINY - Orbit

View from above orbital plane
View from above orbital plane
View from above satellite
View from above satellite

Ground track
Ground track

The orbit data is extracted from the following two-line orbital elements,

1 32953U 08025A   22330.87271820  .00000024  00000-0  10000-3 0  9992
2 32953  82.5029  82.9263 0018675 264.7902  95.1048 12.43115597658517
Epoch (UTC): 26 November 2022 20:56:42
Eccentricity: 0.0018675
inclination: 82.5029°
perigee height: 1479 km
apogee height: 1508 km
right ascension of ascending node: 82.9263°
argument of perigee: 264.7902°
revolutions per day: 12.43115597
mean anomaly at epoch: 95.1048°
orbit number at epoch: 65851

The dashed part of the orbit path shows where the satellite is in the earth's shadow,  

DLR